Location: Killam
(52.7910°N, 111.8608°W)
Time: 13:06:20
(UTC+00:00)

CUBEBUG 2 - Pass Details

Date: 14 March 2026
Orbit: 548 x 627 km, 97.9° (Epoch: 14 April)

Event Time Altitude Azimuth Distance (km) Brightness Sun altitude
Rises 09:50:11 0° 16° (NNE) 2,886 ? -32.6°
Reaches altitude 10° 09:52:23 10° 18° (NNE) 1,987 ? -32.4°
Enters shadow 09:54:30 28° 25° (NNE) 1,167 ? -32.2°
